Location: Krakow
(50.0830°N, 19.9170°E)
Time: 20:16:05
(UTC+01:00)

Altair - Pass Details

Date: 05 December 2023
Orbit: 1501 x 1682 km, 47.2° (Epoch: 03 March)

Event Time Altitude Azimuth Distance (km) Brightness Sun altitude
Rises 08:07:02 0° 227° (SW) 4,828 10.1 4.7°
Reaches altitude 10° 08:10:18 10° 223° (SW) 3,819 9.6 5.1°
Maximum altitude 08:19:29 51° 151° (SSE) 1,906 8.8 6.1°
Drops below altitude 10° 08:28:21 10° 80° (E) 3,698 10.0 7.1°
Sets 08:31:27 0° 75° (ENE) 4,666 10.4 7.4°
